[[{"header":{"parameterUnit":"m.s-1","parameterCategory":1,"la1":30.2991,"la2":30.254,"lo1":-89.0895,"lo2":-89.0444,"dy":0.0017,"dx":0.0017,"nx":28,"ny":28,"refTime":"2026-01-01T09:00:00:Z","depth":0,"parameterNumber":2,"parameterNumberName":"U-component_of_WINDS"},"data":[0,0,0,0,0,0,0,0,0,0,0,0,0,0,0,0,0,0,0,0,0,0,0,0,0,0,0,0,0,0,0,0,0,0,0,0,0,0,0,0,0,0,0,0,0,0,0,0,0,0,0,0,0,0,0,0,0,0,1.5333,1.5335,0,1.5527,1.5529,1.5532,1.5566,1.5564,1.5562,1.5561,1.5764,1.5771,1.5778,0,0,0,0,0,0,0,0,0,0,0,0,0,1.4999,1.5005,1.5333,1.5336,1.5338,1.5527,1.5529,1.5532,1.5566,1.5564,1.5562,1.556,1.5762,1.577,1.5779,0,0,0,0,0,0,0,0,0,0,0,0,0,1.5163,1.5007,1.5333,1.5378,1.5383,1.5526,1.553,1.5533,1.5566,1.5564,1.5561,1.5559,1.5759,1.577,1.578,1.5893,0,0,1.5812,1.5816,0,0,0,0,0,0,0,0,1.5154,1.5176,1.5369,1.5375,1.5382,1.552,1.5486,1.5654,1.5567,1.5497,1.5561,1.5558,1.5685,1.5702,1.5744,1.5903,1.5912,1.5813,1.5819,1.5823,1.5826,0,0,0,0,0,0,0,1.5143,1.5168,1.541,1.5371,1.5379,1.539,1.5411,1.5518,1.5603,1.5503,1.5506,1.5528,1.5688,1.5733,1.5749,1.5915,1.5812,1.5822,1.5828,1.5832,1.618,1.6183,0,0,0,0,0,0,1.5122,1.5158,1.5404,1.5416,1.5259,1.5398,1.5421,1.5478,1.5602,1.5618,1.553,1.5529,1.5717,1.5736,1.5756,1.5899,1.5823,1.5833,1.5839,1.6177,1.6181,1.6184,0,0,0,0,0,0,1.5115,1.5144,1.5396,1.5288,1.5321,1.5406,1.547,1.5483,1.5528,1.5622,1.5638,1.556,1.5716,1.5741,1.5859,1.5907,1.5838,1.5847,1.6174,1.6179,1.6183,1.6185,0,0,0,0,0,0,1.5105,1.5141,1.5183,1.5288,1.5326,1.5494,1.5473,1.5489,1.5545,1.5546,1.5654,1.567,1.5716,1.5844,1.587,1.592,1.5855,1.617,1.6176,1.6181,1.6181,1.6189,1.6196,0,0,0,0,0,1.5093,1.5177,1.5185,1.5215,1.5381,1.5497,1.5519,1.5568,1.5549,1.5593,1.5654,1.5667,1.5897,1.5855,1.5885,1.5939,1.6167,1.6174,1.6181,1.6178,1.6188,1.6196,0,0,0,0,0,0,1.5077,1.5191,1.5202,1.5322,1.5399,1.5502,1.556,1.5576,1.5662,1.5659,1.5718,1.5743,1.5858,1.591,1.5862,1.6057,1.6031,1.6044,1.6019,1.6029,1.6036,1.6022,1.5864,0,0,0,0,0,1.5087,1.5169,1.5266,1.5363,1.5401,1.5473,1.5526,1.5557,1.564,1.5674,1.5743,1.5825,1.5917,1.5975,1.6064,1.6189,1.6215,1.6241,1.6248,1.6254,1.6265,1.6338,1.6352,1.6206,1.6206,1.6206,0,0,1.5109,1.5182,1.5231,1.5361,1.5425,1.5512,1.5501,1.5592,1.5659,1.5688,1.5804,1.5858,1.5954,1.6076,1.6134,1.6123,1.6311,1.6262,1.6266,1.6275,1.6346,1.636,1.6372,1.6211,1.621,1.6209,0,0,1.5194,1.5256,1.5344,1.5408,1.5504,1.5553,1.5574,1.5675,1.5712,1.5829,1.5854,1.5934,1.6089,1.6157,1.6212,1.6324,1.634,1.6352,1.6391,1.6461,1.6473,1.6483,1.6526,1.6541,1.6362,1.6362,1.6362,0,1.521,1.5339,1.5388,1.548,1.5538,1.5567,1.5659,1.5719,1.584,1.5881,1.5867,1.6064,1.613,1.627,1.6298,1.634,1.6369,1.634,1.6467,1.6478,1.6488,1.653,1.6546,1.6363,1.6363,1.6363,1.6363,0,1.5356,1.5446,1.5506,1.5621,1.5685,1.5776,1.5841,1.5901,1.5927,1.5978,1.6098,1.6179,1.6286,1.6321,1.6348,1.6467,1.6458,1.6454,1.643,1.6502,1.6543,1.6559,1.6364,1.6364,1.6364,1.6364,0,0,1.5436,1.5577,1.5599,1.5652,1.5761,1.5833,1.5927,1.603,1.6082,1.6164,1.6246,1.6377,1.6376,1.6438,1.6473,1.6534,1.6622,1.6525,1.6528,1.6542,1.6762,1.6765,1.6783,1.6633,1.6636,1.6638,1.6755,0,1.5536,1.5701,1.5749,1.589,1.5976,1.6006,1.6088,1.6165,1.6215,1.6297,1.6353,1.6446,1.6435,1.6474,1.6535,1.6598,1.6668,1.659,1.6713,1.6717,1.669,1.6803,1.6807,1.6913,1.6771,1.6773,1.6775,0,1.5674,1.5759,1.5908,1.6008,1.6046,1.6118,1.6218,1.6295,1.6384,1.6417,1.6487,1.6516,1.6618,1.6587,1.673,1.6676,1.6729,1.6768,1.6773,1.6789,1.6752,1.6824,1.6947,1.6964,1.68,1.6798,1.6796,0,1.5721,1.5872,1.5982,1.6026,1.6145,1.6196,1.6248,1.6335,1.6395,1.6483,1.6523,1.6622,1.6677,1.6754,1.6811,1.6782,1.6951,1.6923,1.6983,1.6982,1.7019,1.7016,1.7155,1.7049,1.7048,1.7048,1.7048,0,1.5829,1.592,1.6005,1.6072,1.6176,1.6231,1.6333,1.6386,1.6464,1.6545,1.6577,1.6652,1.6721,1.6807,1.6853,1.6966,1.699,1.7022,1.7033,1.702,1.7017,1.7058,1.7053,1.7052,1.7051,1.7051,1.705,0,1.5899,1.5959,1.6081,1.6184,1.6212,1.6284,1.6373,1.6442,1.6492,1.6595,1.6622,1.6703,1.6806,1.687,1.7001,1.7031,1.7157,1.7165,1.7127,1.7133,1.719,1.7185,1.7362,1.739,1.7262,1.7263,1.7264,0,1.5965,1.6036,1.6146,1.6201,1.6254,1.6343,1.6404,1.6461,1.6524,1.6633,1.6689,1.6793,1.688,1.7044,1.7116,1.7217,1.7229,1.7284,1.7245,1.7231,1.7234,1.723,1.7239,1.7292,1.7293,1.7294,1.7294,0,1.6077,1.6103,1.6189,1.6287,1.6359,1.6439,1.6518,1.6563,1.6634,1.6704,1.6808,1.6876,1.7009,1.7114,1.7222,1.7279,1.7301,1.7306,1.7326,1.7315,1.7291,1.7308,1.7148,1.7302,1.7301,1.7301,1.73,1.73,1.615,1.6215,1.6303,1.6398,1.6464,1.6538,1.6608,1.6668,1.6756,1.6868,1.6897,1.7008,1.7099,1.7245,1.7304,1.7394,1.7386,1.7414,1.7422,1.7429,1.7432,1.7274,1.7413,1.7413,1.7413,1.7413,1.7413,0,1.6265,1.6324,1.6411,1.6521,1.6597,1.6608,1.6697,1.6761,1.6858,1.6939,1.7024,1.7146,1.7249,1.7329,1.7435,1.7492,1.7504,1.7518,1.7516,1.7529,1.7431,1.7404,1.7506,1.7506,1.7506,1.7506,1.7506,1.7506,1.6335,1.6447,1.6484,1.663,1.6688,1.6796,1.6847,1.6916,1.6982,1.7117,1.7201,1.7252,1.7335,1.7447,1.7543,1.7564,1.7603,1.7615,1.7639,1.7546,1.7536,1.7526,1.7502,1.7623,1.7623,1.7731,1.7732,1.7733]},{"header":{"parameterUnit":"m.s-1","parameterCategory":1,"la1":30.2991,"la2":30.254,"lo1":-89.0895,"lo2":-89.0444,"dy":0.0017,"dx":0.0017,"nx":28,"ny":28,"refTime":"2026-01-01T09:00:00:Z","depth":0,"parameterNumber":3,"parameterNumberName":"V-component_of_WINDS"},"data":[0,0,0,0,0,0,0,0,0,0,0,0,0,0,0,0,0,0,0,0,0,0,0,0,0,0,0,0,0,0,0,0,0,0,0,0,0,0,0,0,0,0,0,0,0,0,0,0,0,0,0,0,0,0,0,0,0,0,2.8055,2.8056,0,2.8187,2.8188,2.819,2.8174,2.8172,2.817,2.8168,2.8303,2.8309,2.8314,0,0,0,0,0,0,0,0,0,0,0,0,0,2.7791,2.7796,2.8055,2.8056,2.8058,2.8186,2.8188,2.819,2.8175,2.8172,2.8169,2.8167,2.8301,2.8308,2.8315,0,0,0,0,0,0,0,0,0,0,0,0,0,2.7912,2.7798,2.8054,2.8066,2.8068,2.8186,2.8188,2.8191,2.8175,2.8172,2.8169,2.8166,2.8299,2.8307,2.8316,2.8431,0,0,2.8341,2.8345,0,0,0,0,0,0,0,0,2.7906,2.7922,2.8063,2.8065,2.8068,2.8161,2.8145,2.8271,2.8176,2.8135,2.8168,2.8164,2.8258,2.827,2.8302,2.8437,2.8443,2.8342,2.8347,2.8351,2.8353,0,0,0,0,0,0,0,2.7897,2.7916,2.8107,2.8065,2.8068,2.8065,2.8079,2.8169,2.8213,2.8138,2.8137,2.8153,2.8259,2.8294,2.8305,2.8445,2.8342,2.8349,2.8354,2.8358,2.8683,2.8687,0,0,0,0,0,0,2.7886,2.7909,2.8103,2.8111,2.7977,2.8072,2.8087,2.8134,2.8212,2.822,2.8155,2.8152,2.8281,2.8295,2.8309,2.8451,2.8351,2.8358,2.8363,2.868,2.8684,2.8688,0,0,0,0,0,0,2.788,2.7903,2.8097,2.801,2.8035,2.808,2.8133,2.8139,2.8173,2.8225,2.8233,2.8182,2.8279,2.8298,2.8401,2.8455,2.8362,2.837,2.8675,2.8681,2.8686,2.8734,0,0,0,0,0,0,2.7873,2.7901,2.7945,2.8011,2.8039,2.8187,2.8136,2.8143,2.8187,2.8184,2.8252,2.8261,2.8278,2.8389,2.8409,2.8465,2.8376,2.8671,2.8678,2.8684,2.8728,2.874,2.8751,0,0,0,0,0,2.7863,2.7953,2.7947,2.7971,2.8095,2.819,2.8206,2.8224,2.8192,2.8237,2.827,2.8258,2.8446,2.8399,2.8423,2.8482,2.8668,2.8676,2.8684,2.8722,2.8738,2.8751,0,0,0,0,0,0,2.7892,2.7962,2.7956,2.807,2.8124,2.8187,2.8244,2.8239,2.8304,2.8298,2.8317,2.8333,2.8438,2.847,2.8417,2.8598,2.8552,2.8566,2.8574,2.8589,2.86,2.8591,2.8383,0,0,0,0,0,2.7912,2.7982,2.804,2.8134,2.8162,2.8198,2.824,2.825,2.8307,2.8329,2.8371,2.8427,2.8498,2.8545,2.8613,2.8732,2.8747,2.8784,2.8795,2.8805,2.8816,2.8883,2.8901,2.8715,2.8715,2.8715,0,0,2.7953,2.8,2.8043,2.8141,2.8184,2.8258,2.8218,2.8297,2.8352,2.8341,2.8442,2.8474,2.8538,2.865,2.8701,2.868,2.8871,2.8815,2.8822,2.8829,2.8893,2.8911,2.8927,2.8721,2.8719,2.8719,0,0,2.8066,2.8108,2.8192,2.8236,2.8302,2.8326,2.8346,2.841,2.8432,2.8533,2.8527,2.8593,2.8715,2.8761,2.8801,2.8933,2.8925,2.8954,2.9016,2.9081,2.9095,2.9108,2.9157,2.9174,2.8965,2.8965,2.8966,0,2.8109,2.8219,2.8236,2.8317,2.8361,2.8355,2.8441,2.8483,2.8568,2.8599,2.8573,2.8728,2.877,2.8894,2.8926,2.8958,2.8982,2.8947,2.9092,2.9105,2.9118,2.9164,2.9182,2.8969,2.8968,2.8968,2.8968,0,2.827,2.8347,2.8407,2.849,2.854,2.8623,2.8654,2.8703,2.8708,2.8735,2.8839,2.8889,2.8969,2.8998,2.9004,2.9123,2.9108,2.9087,2.9042,2.9138,2.9183,2.9201,2.8973,2.8972,2.8971,2.897,0,0,2.8405,2.8497,2.8519,2.8557,2.8629,2.8689,2.8772,2.885,2.8893,2.8952,2.9023,2.9127,2.9109,2.9154,2.9164,2.9221,2.9324,2.9193,2.9195,2.9217,2.9461,2.9478,2.9498,2.9319,2.9322,2.9325,2.9457,0,2.8527,2.8674,2.8692,2.8823,2.8895,2.8891,2.8963,2.9016,2.9043,2.9109,2.9139,2.9213,2.9182,2.921,2.9265,2.93,2.9374,2.929,2.9387,2.939,2.9373,2.9521,2.9539,2.9661,2.9474,2.9477,2.9479,0,2.8688,2.8752,2.8891,2.8955,2.8986,2.9051,2.9125,2.9187,2.9247,2.9263,2.9314,2.9317,2.9404,2.9354,2.9475,2.9418,2.9458,2.9481,2.9487,2.9498,2.9441,2.9538,2.97,2.9719,2.9506,2.9504,2.9502,0,2.8775,2.8896,2.8995,2.9027,2.9104,2.915,2.9184,2.9241,2.9287,2.9352,2.9382,2.9456,2.9496,2.9554,2.9577,2.9538,2.9698,2.9649,2.9715,2.9714,2.9749,2.9747,2.9922,2.9772,2.9772,2.9772,2.9771,0,2.891,2.8996,2.9035,2.9096,2.9192,2.9212,2.9307,2.9339,2.939,2.9458,2.9458,2.9522,2.9548,2.9616,2.9635,2.9734,2.9751,2.9768,2.9772,2.9769,2.9767,2.9797,2.979,2.9777,2.9776,2.9775,2.9774,0,2.9024,2.9054,2.9162,2.9226,2.9244,2.9312,2.9367,2.9427,2.9453,2.9539,2.9561,2.9603,2.9683,2.9712,2.981,2.9822,2.9937,2.9933,2.9917,2.9919,2.9983,2.9978,3.0184,3.0213,3.0043,3.0045,3.0046,0,2.9109,2.9175,2.9246,2.9292,2.9328,2.9401,2.9448,2.947,2.952,2.9594,2.9645,2.9725,2.979,2.9919,2.9959,3.0034,3.0033,3.0101,3.0045,3.004,3.0037,3.0034,3.0041,3.0112,3.0113,3.0115,3.0116,0,2.9257,2.9269,2.9337,2.9412,2.9468,2.9528,2.9585,2.9623,2.9654,2.9709,2.9792,2.9843,2.9943,3.0023,3.01,3.0136,3.0132,3.0133,3.0153,3.0151,3.014,3.0149,2.9948,3.0129,3.0127,3.0126,3.0126,3.0125,2.9361,2.942,2.948,2.9556,2.9602,2.9656,2.9716,2.975,2.9819,2.9903,2.9911,3.0001,3.006,3.0164,3.0203,3.0274,3.0255,3.0283,3.029,3.0297,3.0303,3.0127,3.0287,3.0287,3.0287,3.0286,3.0286,0,2.9511,2.9549,2.9619,2.97,2.9761,2.9751,2.9815,2.9867,2.9945,3.0001,3.0066,3.0161,3.0239,3.0285,3.0363,3.0411,3.0412,3.0431,3.0429,3.0438,3.0314,3.029,3.043,3.043,3.043,3.043,3.043,3.043,2.9596,2.9696,2.9715,2.9838,2.9876,2.9964,3.0001,3.0051,3.0096,3.0203,3.0268,3.0297,3.035,3.0432,3.0504,3.0515,3.0545,3.0567,3.0577,3.0461,3.0446,3.0432,3.041,3.0573,3.0573,3.0695,3.0696,3.0697]}]]